Regional Weather Roundup
Issued by NWS

Home | Current Version | Previous Version | Graphics & Text | Print | Product List | Glossary On
Versions: 1 2 3 4 5 6 7 8 9 10 11 12 13 14 15 16 17 18 19 20 21 22 23 24 25 26 27
000
ASUS45 KSLC 260010
RWRUT

UTAH REGIONAL WEATHER ROUNDUP
NATIONAL WEATHER SERVICE SALT LAKE CITY UT
600 PM MDT THU AUG 25 2016

UTZ001>011-023>025-260100-

NORTHERN UTAH

CITY           SKY/WX    TMP DP  RH WIND       PRES   REMARKS
BRIGHAM CITY     N/A     81  19  10 CALM      30.01S
HILL AFB       MOSUNNY   80  27  14 NW6       30.04F
LOGAN          SUNNY     81  24  12 N7        30.01F
OGDEN          SUNNY     80  22  11 VRB3      30.01F
PROVO AIRPORT  PTSUNNY   81  34  18 S10       30.01F
SALT LAKE CITY PTSUNNY   83  25  12 NW7       29.99F
VERNAL         CLOUDY    73  35  25 N9        30.12F
WENDOVER       SUNNY     81  28  15 SE7       30.00S
HEBER CITY     PTSUNNY   79  27  14 SW9G16    30.05F
WEST JORDAN    MOSUNNY   78  34  19 NW10      30.02F

$$

UTZ012>022-026-027-260100-

SOUTHERN/CENTRAL UTAH

CITY           SKY/WX    TMP DP  RH WIND       PRES   REMARKS
BLANDING       CLOUDY    64  45  49 NW10G17   30.22R
BRYCE CANYON   LGT RAIN  54  48  80 NW6       30.32R
CEDAR CITY     CLOUDY    69  39  33 E14G28    30.13F
MILFORD        PTSUNNY   71  42  35 S13       30.07F
MOAB/CYNLANDS  CLOUDY    72  43  35 E17       30.09F
PRICE          CLOUDY    69  37  30 E15G21    30.15R
ST GEORGE      MOCLDY    97  37  12 W16       29.88F HX  92

$$

REGIONAL REPORTS     COLORADO/ARIZONA

CITY           SKY/WX    TMP DP  RH WIND       PRES   REMARKS
CRAIG, CO      CLOUDY    69  29  22 W12       30.16F
GRAND JUNCTION RAIN      59  52  77 W13       30.24R
RIFLE          CLOUDY    65  49  56 VRB3      30.16R
MONTROSE       CLOUDY    60  50  69 NE10      30.22R
CORTEZ         CLOUDY    77  40  26 SW9       30.12S
PAGE, AZ       CLOUDY    73  49  42 NE14      30.10S
GRAND CANYON   CLOUDY    57  52  83 S8G18     30.23R
KINGMAN        SUNNY     90  43  19 S21G28    29.96F
FLAGSTAFF      CLOUDY    57  52  83 NW3       30.28R

$$

REGIONAL REPORTS    NEVADA/IDAHO/WYOMING

CITY           SKY/WX    TMP DP  RH WIND       PRES   REMARKS
LAS VEGAS, NV  MOSUNNY   99  29   8 W21G29    29.77F HX  93
ELY            PTSUNNY   76  26  15 CALM      30.08F
ELKO           SUNNY     81  13   7 W7G21     30.03F
POCATELLO, ID  MOSUNNY   79  28  15 N8        30.04F
BURLEY         SUNNY     77  32  19 MISG      30.01F
EVANSTON, WY   CLOUDY    68  20  16 W8        30.17F
ROCK SPRINGS   CLOUDY    66  31  27 S14       30.19F

$$




USA.gov is the U.S. government's official web portal to all federal, state and local government web resources and services.